{"data":{"norad_id":67279,"intl_designator":"2025-313AH","name":"GALAPAGOS-UTE-SWSU","alt_names":[],"object_type":"PAYLOAD","status":"ACTIVE","operator":null,"country":"TBD","launch_date":"2025-12-28","launch_site_code":"VOSTO","launch_vehicle":null,"mission":null,"orbit_class":"UNKNOWN","rcs_meters":null,"size_class":null,"mass_kg":null,"dimensions":null,"purposes":[],"wikipedia_slug":null,"has_3d_model":false,"image_url":null,"decayed_at":null,"tle_current":{"epoch":"2026-05-25T03:22:24.314016Z","epoch_age_seconds":62869,"freshness":"FRESH","line1":"1 67279U 25313AH  26145.14055919  .00006706  00000+0  29170-3 0  9997","line2":"2 67279  97.3930 220.1186 0015745  86.9593 273.3445 15.22467940 22446","mean_motion":15.2246794,"eccentricity":0.0015745,"inclination_deg":97.393,"raan_deg":220.1186,"arg_perigee_deg":86.9593,"mean_anomaly_deg":273.3445,"bstar":0.0002917,"rev_number":2244,"period_min":94.58327247272,"perigee_km":487.57215224562,"apogee_km":509.22636492391,"semimajor_km":6876.5362585848,"source":"CELESTRAK","updated_at":"2026-05-25T13:38:06.852797Z"}}}